TELSTAR 18V (APSTAR 5C) (43611 NORAD) Tracking and Keplerian Element Data

This shows tracking and keplerian element data for the satellite.

Feedback or suggestion? Click here.




ElementValue
Catalog43611
NameTELSTAR 18V (APSTAR 5C)
Epoch Orbit1973
Epoch Day12.64049552
Epoch Year2024
RAAN43.1389
Inclination0.0179
Eccentricity0.0001674
Argument of Perigee250.782
Mean Anonmoly186.2681
Mean Motion1.00269894
Decay Rate-2.84E-06
L11 43611U 18069A 24012.64049552 -.00000284 00000+0 00000+0 0 9996
L22 43611 0.0179 43.1389 0001674 250.7820 186.2681 1.00269894 19735



Live tracking and technical data element details for TELSTAR 18V (APSTAR 5C) (NORAD 43611). TELSTAR 18V (APSTAR 5C) can be tracked NOW for your location showing map with azimuth and elevation plus other details from your city location.







IsCatalogInMostPopularTable: catalog: 43611, numindb: 1048
Update: records affected: 1



GetName: 43611 TELSTAR 18V (APSTAR 5C)

Hit Count: updated at: Sat, 20 Apr 2024 11:18:39 GMT